Radiation Dose at Monitoring Post of Fukushima Daini Nuclear Power Station
Date,Time,MP-1(microSv/h),MP-2(microSv/h),MP-3(microSv/h),MP-4(microSv/h),MP-5(microSv/h),MP-6(microSv/h),MP-7(microSv/h),Wind Direction,Wind Velocity(m/s),Rain
2023/09/10,00:00,0.143,0.126,0.208,0.201,0.206,0.114,0.074,south,1.9,No
2023/09/10,00:10,0.141,0.124,0.209,0.199,0.202,0.113,0.074,south,2.6,No
2023/09/10,00:20,0.142,0.124,0.211,0.197,0.206,0.114,0.074,south,1.8,No
2023/09/10,00:30,0.143,0.125,0.208,0.199,0.207,0.115,0.074,south,2.3,No
2023/09/10,00:40,0.141,0.124,0.209,0.198,0.205,0.113,0.074,south,2.4,No
2023/09/10,00:50,0.141,0.125,0.210,0.198,0.203,0.115,0.074,south,2.8,No
2023/09/10,01:00,0.144,0.125,0.210,0.198,0.208,0.115,0.074,south,2.5,No
2023/09/10,01:10,0.141,0.125,0.210,0.199,0.205,0.115,0.075,south-southwest,3.4,No
2023/09/10,01:20,0.142,0.125,0.211,0.198,0.204,0.114,0.075,south-southwest,2.6,No
2023/09/10,01:30,0.143,0.126,0.209,0.198,0.208,0.115,0.074,south-southwest,3.0,No
2023/09/10,01:40,0.142,0.126,0.209,0.202,0.207,0.115,0.075,south-southwest,2.2,No
2023/09/10,01:50,0.143,0.125,0.211,0.200,0.204,0.114,0.075,southwest,2.8,No
2023/09/10,02:00,0.143,0.126,0.210,0.198,0.205,0.116,0.075,west-southwest,1.9,No
2023/09/10,02:10,0.143,0.125,0.208,0.200,0.208,0.116,0.074,west,1.9,No
2023/09/10,02:20,0.142,0.124,0.210,0.199,0.204,0.114,0.075,southwest,0.6,No
2023/09/10,02:30,0.142,0.126,0.210,0.197,0.203,0.115,0.074,south-southwest,1.4,No
2023/09/10,02:40,0.144,0.125,0.209,0.199,0.207,0.115,0.074,south,2.7,No
2023/09/10,02:50,0.143,0.125,0.210,0.200,0.207,0.115,0.074,south,2.7,No
2023/09/10,03:00,0.142,0.125,0.210,0.198,0.205,0.114,0.074,south,3.4,No
2023/09/10,03:10,0.144,0.125,0.209,0.198,0.204,0.115,0.074,south,4.0,No
2023/09/10,03:20,0.143,0.125,0.210,0.200,0.208,0.115,0.074,south,3.7,No
2023/09/10,03:30,0.142,0.125,0.211,0.198,0.205,0.114,0.074,south,3.9,No
2023/09/10,03:40,0.144,0.126,0.209,0.198,0.204,0.115,0.074,south-southwest,4.2,No
2023/09/10,03:50,0.144,0.124,0.210,0.200,0.205,0.115,0.074,south,4.0,No
2023/09/10,04:00,0.142,0.127,0.212,0.200,0.207,0.115,0.075,south-southwest,2.6,No
2023/09/10,04:10,0.142,0.126,0.209,0.198,0.204,0.115,0.075,south-southwest,2.0,No
2023/09/10,04:20,0.143,0.126,0.211,0.200,0.206,0.116,0.073,south-southwest,3.1,No
2023/09/10,04:30,0.142,0.126,0.211,0.200,0.207,0.116,0.075,south-southwest,2.8,No
2023/09/10,04:40,0.142,0.126,0.210,0.199,0.206,0.115,0.075,south-southwest,2.5,No
2023/09/10,04:50,0.143,0.124,0.210,0.200,0.204,0.115,0.075,south,2.8,No
2023/09/10,05:00,0.142,0.126,0.211,0.200,0.208,0.115,0.075,south,3.2,No
2023/09/10,05:10,0.142,0.125,0.210,0.198,0.207,0.115,0.076,south,3.3,No
2023/09/10,05:20,0.144,0.125,0.210,0.199,0.205,0.115,0.074,south,2.9,No
2023/09/10,05:30,0.143,0.126,0.211,0.200,0.207,0.115,0.075,south-southwest,2.6,No
2023/09/10,05:40,0.143,0.125,0.210,0.199,0.208,0.115,0.075,southwest,2.7,No
2023/09/10,05:50,0.144,0.126,0.211,0.198,0.206,0.115,0.076,west-southwest,2.0,No
2023/09/10,06:00,0.144,0.126,0.212,0.201,0.204,0.116,0.074,west,1.4,No
2023/09/10,06:10,0.143,0.126,0.209,0.199,0.208,0.115,0.074,northwest,1.5,No
2023/09/10,06:20,0.143,0.125,0.211,0.198,0.207,0.115,0.075,northwest,0.6,No
2023/09/10,06:30,0.143,0.127,0.213,0.200,0.205,0.116,0.074,-,CALM,No
2023/09/10,06:40,0.142,0.125,0.210,0.199,0.206,0.116,0.074,-,CALM,No
2023/09/10,06:50,0.143,0.126,0.210,0.199,0.207,0.116,0.074,north,0.7,No
2023/09/10,07:00,0.145,0.126,0.210,0.197,0.206,0.115,0.075,-,CALM,No
2023/09/10,07:10,0.144,0.127,0.211,0.201,0.206,0.117,0.075,-,CALM,No
2023/09/10,07:20,0.143,0.126,0.209,0.200,0.203,0.116,0.075,north-northwest,0.6,No
2023/09/10,07:30,0.142,0.125,0.210,0.200,0.205,0.115,0.075,north,0.6,No
2023/09/10,07:40,0.144,0.125,0.209,0.199,0.205,0.115,0.076,north,1.1,No
2023/09/10,07:50,0.144,0.126,0.210,0.198,0.207,0.117,0.075,north,1.3,No
2023/09/10,08:00,0.143,0.127,0.210,0.199,0.208,0.116,0.075,north-northeast,1.8,No
2023/09/10,08:10,0.142,0.126,0.211,0.199,0.206,0.116,0.075,northeast,1.0,No
2023/09/10,08:20,0.143,0.126,0.211,0.199,0.208,0.116,0.075,east-northeast,1.9,No
2023/09/10,08:30,0.145,0.125,0.212,0.199,0.206,0.116,0.075,east-northeast,1.9,No
2023/09/10,08:40,0.144,0.125,0.211,0.199,0.204,0.116,0.075,east-northeast,2.4,No
2023/09/10,08:50,0.143,0.125,0.210,0.199,0.205,0.116,0.074,east-northeast,1.8,No
2023/09/10,09:00,0.143,0.125,0.210,0.200,0.205,0.116,0.075,east-northeast,1.7,No
2023/09/10,09:10,0.143,0.126,0.211,0.199,0.206,0.116,0.075,east-northeast,1.9,No
2023/09/10,09:20,0.143,0.126,0.211,0.199,0.207,0.115,0.075,northeast,2.1,No
2023/09/10,09:30,0.143,0.126,0.211,0.200,0.206,0.116,0.075,east-northeast,1.8,No
2023/09/10,09:40,0.143,0.126,0.211,0.200,0.207,0.116,0.075,east-northeast,2.0,No
2023/09/10,09:50,0.143,0.126,0.211,0.200,0.207,0.116,0.075,east-northeast,2.3,No
2023/09/10,10:00,0.143,0.127,0.211,0.201,0.206,0.117,0.075,east-northeast,1.8,No
2023/09/10,10:10,0.143,0.126,0.211,0.201,0.206,0.116,0.075,east-northeast,2.2,No
2023/09/10,10:20,0.144,0.127,0.212,0.201,0.207,0.116,0.075,northeast,2.0,No
2023/09/10,10:30,0.144,0.127,0.211,0.201,0.207,0.116,0.075,east-northeast,2.0,No
2023/09/10,10:40,0.144,0.127,0.212,0.200,0.207,0.116,0.075,east,2.0,No
2023/09/10,10:50,0.143,0.127,0.213,0.200,0.207,0.117,0.075,east-northeast,1.6,No
2023/09/10,11:00,0.145,0.125,0.211,0.200,0.206,0.117,0.075,northeast,2.1,No
2023/09/10,11:10,0.144,0.126,0.211,0.199,0.206,0.116,0.074,northeast,2.8,No
2023/09/10,11:20,0.145,0.126,0.212,0.200,0.207,0.116,0.075,east,2.3,No
2023/09/10,11:30,0.144,0.127,0.211,0.200,0.208,0.116,0.075,east-northeast,1.8,No
2023/09/10,11:40,0.144,0.127,0.211,0.200,0.207,0.116,0.075,east-northeast,1.6,No
2023/09/10,11:50,0.144,0.127,0.211,0.202,0.208,0.116,0.075,east,1.4,No
2023/09/10,12:00,0.144,0.127,0.212,0.201,0.207,0.117,0.075,east,1.1,No
2023/09/10,12:10,0.144,0.127,0.211,0.200,0.207,0.116,0.075,east,1.9,No
2023/09/10,12:20,0.145,0.126,0.212,0.202,0.207,0.116,0.075,east-southeast,1.7,No
2023/09/10,12:30,0.144,0.127,0.213,0.201,0.207,0.116,0.075,east-southeast,1.3,No
2023/09/10,12:40,0.144,0.127,0.213,0.201,0.208,0.116,0.075,southeast,1.2,No
2023/09/10,12:50,0.145,0.127,0.213,0.200,0.207,0.116,0.074,east-southeast,1.8,No
2023/09/10,13:00,0.144,0.127,0.212,0.201,0.207,0.117,0.075,east-southeast,1.4,No
2023/09/10,13:10,0.144,0.127,0.212,0.200,0.208,0.116,0.075,southeast,1.2,No
2023/09/10,13:20,0.144,0.127,0.212,0.200,0.207,0.116,0.074,southeast,1.4,No
2023/09/10,13:30,0.144,0.126,0.212,0.200,0.208,0.116,0.075,southeast,1.3,No
2023/09/10,13:40,0.145,0.125,0.211,0.201,0.206,0.115,0.074,southeast,1.2,No
2023/09/10,13:50,0.144,0.126,0.212,0.200,0.206,0.116,0.074,south-southeast,1.8,No
2023/09/10,14:00,0.143,0.127,0.212,0.200,0.206,0.116,0.074,south-southeast,1.7,No
2023/09/10,14:10,0.142,0.126,0.211,0.200,0.207,0.115,0.074,south-southeast,2.1,No
2023/09/10,14:20,0.143,0.126,0.211,0.200,0.207,0.116,0.075,south-southeast,2.6,No
2023/09/10,14:30,0.143,0.126,0.211,0.199,0.207,0.116,0.075,southeast,1.9,No
2023/09/10,14:40,0.144,0.126,0.210,0.199,0.206,0.116,0.075,south-southeast,2.1,No
2023/09/10,14:50,0.144,0.126,0.212,0.200,0.207,0.115,0.074,south-southeast,2.4,No
2023/09/10,15:00,0.144,0.127,0.211,0.199,0.208,0.116,0.074,south,2.5,No
2023/09/10,15:10,0.145,0.127,0.212,0.198,0.206,0.115,0.074,south-southeast,2.2,No
2023/09/10,15:20,0.143,0.126,0.211,0.199,0.206,0.115,0.074,south-southeast,2.3,No
2023/09/10,15:30,0.143,0.125,0.211,0.200,0.207,0.116,0.074,south-southeast,2.7,No
2023/09/10,15:40,0.142,0.126,0.211,0.199,0.205,0.116,0.074,south-southeast,3.2,No
2023/09/10,15:50,0.143,0.126,0.210,0.198,0.205,0.116,0.074,south-southeast,3.2,No
2023/09/10,16:00,0.143,0.125,0.210,0.199,0.205,0.116,0.074,south-southeast,3.5,No
2023/09/10,16:10,0.143,0.125,0.211,0.199,0.205,0.116,0.074,south-southeast,4.0,No
2023/09/10,16:20,0.143,0.124,0.210,0.199,0.205,0.115,0.073,south,4.0,No
2023/09/10,16:30,0.144,0.125,0.210,0.200,0.206,0.115,0.074,south,3.5,No
2023/09/10,16:40,0.143,0.125,0.211,0.199,0.207,0.116,0.073,south,3.5,No
2023/09/10,16:50,0.142,0.125,0.209,0.199,0.206,0.116,0.074,south,4.2,No
2023/09/10,17:00,0.142,0.125,0.214,0.200,0.205,0.115,0.074,south,4.0,No
2023/09/10,17:10,0.142,0.125,0.215,0.202,0.206,0.116,0.075,south,3.4,No
2023/09/10,17:20,0.143,0.127,0.212,0.202,0.206,0.116,0.074,south-southwest,3.3,No
2023/09/10,17:30,0.145,0.126,0.212,0.200,0.205,0.116,0.074,south-southwest,3.1,No
2023/09/10,17:40,0.144,0.126,0.211,0.200,0.204,0.115,0.074,south,2.6,No
2023/09/10,17:50,0.144,0.125,0.210,0.199,0.207,0.115,0.073,south,3.3,No
2023/09/10,18:00,0.142,0.125,0.213,0.198,0.209,0.115,0.073,south,3.7,No
2023/09/10,18:10,0.142,0.125,0.213,0.202,0.208,0.115,0.074,south,4.0,No
2023/09/10,18:20,0.143,0.127,0.211,0.201,0.206,0.117,0.074,south,3.5,No
2023/09/10,18:30,0.144,0.126,0.210,0.200,0.205,0.117,0.074,south,3.4,No
2023/09/10,18:40,0.144,0.125,0.210,0.198,0.207,0.116,0.073,south,3.2,No
2023/09/10,18:50,0.143,0.126,0.213,0.199,0.208,0.115,0.074,south,1.7,No
2023/09/10,19:00,0.142,0.126,0.213,0.202,0.208,0.116,0.074,south,2.2,No
2023/09/10,19:10,0.143,0.125,0.211,0.200,0.206,0.115,0.074,south,1.9,No
2023/09/10,19:20,0.144,0.126,0.210,0.198,0.205,0.116,0.074,south,1.6,No
2023/09/10,19:30,0.143,0.125,0.213,0.198,0.208,0.116,0.073,south-southeast,3.1,No
2023/09/10,19:40,0.141,0.126,0.213,0.202,0.207,0.115,0.075,south-southeast,3.3,No
2023/09/10,19:50,0.144,0.127,0.212,0.201,0.206,0.115,0.074,south,3.9,No
2023/09/10,20:00,0.145,0.126,0.210,0.200,0.204,0.116,0.073,south,2.9,No
2023/09/10,20:10,0.143,0.125,0.212,0.199,0.205,0.116,0.073,south,2.7,No
2023/09/10,20:20,0.143,0.127,0.213,0.202,0.208,0.115,0.074,south,1.8,No
2023/09/10,20:30,0.143,0.126,0.211,0.201,0.208,0.115,0.074,south,1.8,No
2023/09/10,20:40,0.144,0.125,0.211,0.200,0.205,0.115,0.074,south-southwest,1.8,No
2023/09/10,20:50,0.143,0.126,0.214,0.199,0.205,0.117,0.073,south-southwest,1.5,No
2023/09/10,21:00,0.142,0.127,0.215,0.202,0.209,0.116,0.075,south-southwest,2.2,No
2023/09/10,21:10,0.143,0.125,0.212,0.202,0.208,0.115,0.075,south,1.8,No
2023/09/10,21:20,0.145,0.125,0.211,0.201,0.207,0.116,0.075,south,1.9,No
2023/09/10,21:30,0.144,0.127,0.214,0.199,0.205,0.117,0.075,south,1.5,No
2023/09/10,21:40,0.142,0.127,0.214,0.203,0.209,0.117,0.075,south-southwest,1.2,No
2023/09/10,21:50,0.143,0.126,0.213,0.203,0.209,0.116,0.075,south,1.1,No
2023/09/10,22:00,0.146,0.126,0.212,0.201,0.207,0.117,0.075,south,1.1,No
2023/09/10,22:10,0.144,0.128,0.214,0.199,0.206,0.117,0.075,south,2.0,No
2023/09/10,22:20,0.144,0.127,0.214,0.203,0.208,0.117,0.075,south,1.4,No
2023/09/10,22:30,0.143,0.126,0.212,0.201,0.210,0.116,0.075,south,1.8,No
2023/09/10,22:40,0.146,0.126,0.214,0.200,0.207,0.117,0.075,south,1.3,No
2023/09/10,22:50,0.145,0.127,0.214,0.201,0.206,0.117,0.075,south-southwest,0.9,No
2023/09/10,23:00,0.143,0.127,0.214,0.202,0.209,0.117,0.076,-,CALM,No
2023/09/10,23:10,0.144,0.127,0.214,0.201,0.210,0.116,0.076,-,CALM,No
2023/09/10,23:20,0.147,0.127,0.215,0.200,0.207,0.118,0.075,south-southwest,0.8,No
2023/09/10,23:30,0.145,0.128,0.216,0.203,0.206,0.118,0.075,south,0.8,No
2023/09/10,23:40,0.142,0.127,0.212,0.202,0.208,0.118,0.075,south,0.9,No
2023/09/10,23:50,0.144,0.125,0.213,0.201,0.209,0.116,0.075,-,CALM,No
